Location: Unspecified
(26.1220°N, 0.0000°E)
Time: 20:23:29
(UTC+00:00)

ISS - Visible Passes

Search period start: 19 May 2019 00:00
Search period end: 29 May 2019 00:00
Orbit: 407 x 410 km, 51.6° (Epoch: 20 May)

Date Brightness Start Highest point End Pass type
(mag) Time Alt. Az. Time Alt. Az. Time Alt. Az.
19 May -0.7 03:22:42 10° N 03:24:56 17° NE 03:27:09 10° E visible
19 May -1.0 19:57:32 10° W 20:00:07 21° NW 20:02:42 10° N visible
20 May -3.9 04:07:25 10° NW 04:10:41 64° SW 04:13:56 10° SSE visible
20 May -2.4 19:06:00 10° WSW 19:09:09 44° NW 19:12:19 10° NNE visible
21 May -3.0 03:19:20 45° NNE 03:19:49 50° NE 03:23:01 10° SE visible
